Notices

What's New in latest Release from April 7th, 2021:

- Updated Glossary, including Speed of Maximum Gust, and Total Hourly Precipitation

- Updated national and regional climate services offices contacts and prices information

- Addition of station inventory lists for 1981-2010, 1971-2000, and 1961-1990 Normals.

If you haven't already, please take our survey and provide feedback about our website: https://eccc.sondage-survey.ca/f/LanguageSelection.aspx?s=442ca660-fcf1-47c0-95a9-59707d6fd709

Hourly Data Report for November 12, 2019

CARBERRY CS
MANITOBA
Current Station Operator: ECCC - MSC

49°54'20.900" N
99°21'26.800" W
383.50 m
5010547
71170
WZE

Download Data

Hourly Data (November 2019)
Hourly Data Report for November 12, 2019
TIME
LST
Temp Definition
°C
Dew Point Definition
°C
Rel Hum Definition
%
Precip. Amount Definition
mm

Wind Dir Definition
10's deg

Wind Spd Definition
km/h
Visibility Definition
km
Stn Press Definition
kPa
Hmdx Definition


Wind Chill Definition


Weather Definition


00:00 -16.4 -19.5 77 0.0 19 14   98.11   -24 LegendNANA
01:00 -16.5 -19.5 78 0.0 18 15   98.01   -25 LegendNANA
02:00 -17.1 -19.8 80 0.0 18 11   97.91   -24 LegendNANA
03:00 -16.7 -19.5 79 0.0 16 17   97.73   -26 LegendNANA
04:00 -16.1 -18.7 80 0.0 16 17   97.55   -25 LegendNANA
05:00 -14.7 -18.1 75 0.0 16 21   97.35   -24 LegendNANA
06:00 -13.5 -17.1 74 0.0 16 17   97.19   -22 LegendNANA
07:00 -13.7 -17.1 75 0.0 16 20   96.98   -23 LegendNANA
08:00 -13.1 -16.7 74 0.0 16 23   96.81   -22 LegendNANA
09:00 -12.0 -16.4 70 0.0 17 24   96.79   -21 LegendNANA
10:00 -10.5 -15.5 67 0.0 17 21   96.74   -19 LegendNANA
11:00 -9.2 -14.9 63 0.0 17 26   96.63   -18 LegendNANA
12:00 -8.5 -13.7 66 0.0 17 25   96.54   -17 LegendNANA
13:00 -7.6 -13.5 63 0.0 19 23   96.43   -15 LegendNANA
14:00 -7.0 -12.3 66 0.0 19 18   96.33   -14 LegendNANA
15:00 -6.6 -12.0 66 0.0 20 20   96.26   -14 LegendNANA
16:00 -6.3 -11.7 65 0.0 20 18   96.23   -13 LegendNANA
17:00 -6.2 -11.2 68 0.0 23 14   96.25   -12 LegendNANA
18:00 -6.4 -10.8 71 0.0 23 9   96.21   -11 LegendNANA
19:00 -6.4 -10.0 75 0.0 22 11   96.13   -11 LegendNANA
20:00 -6.2 -8.5 84 0.0 23 15   96.11   -12 LegendNANA
21:00 -5.8 -7.9 85 0.0 24 11   96.12   -11 LegendNANA
22:00 -5.4 -7.7 84 0.0 25 10   96.14   -10 LegendNANA
23:00 -5.1 -7.9 81 0.0 27 13   96.16   -10 LegendNANA

Notes on Data Quality.

Legend

  • E = Estimated
  • M = Missing
  • NA = Not Available*
  • [empty] = Indicates an unobserved value
Date modified: